EW1675 Weather Reports


time (UTC)temp
F
wind
direction
speed
knots
gust
knots
rain 1hr
in
rain 24hr
in
rain mn
in
humidity
%
barometer
mb
20260904162002 87 335 0.9 3.5 0.00 1.11 0.10 69 1015.0
20260904161002 86 1 1.7 6.1 0.00 1.11 0.10 68 1015.1
20260904160105 86 324 1.7 5.2 0.00 1.11 0.10 69 1015.0
20260904155002 86 5 1.7 8.7 0.00 1.11 0.10 67 1015.0
20260904154002 86 347 1.7 7.0 0.00 1.11 0.10 70 1015.0
20260904153023 85 345 0.9 4.3 0.00 1.11 0.10 71 1015.1
20260904152002 84 355 1.7 5.2 0.00 1.11 0.10 74 1015.1
20260904151002 84 360 1.7 6.1 0.00 1.11 0.10 73 1015.1
20260904150023 83 351 1.7 6.1 0.00 1.11 0.10 74 1015.2
20260904145044 82 352 2.6 7.0 0.00 1.11 0.10 76 1015.3
20260904144023 81 351 1.7 6.1 0.00 1.11 0.10 76 1015.3
20260904143002 81 14 1.7 4.3 0.00 1.11 0.10 81 1015.2
20260904142023 80 354 1.7 4.3 0.00 1.11 0.10 84 1015.2
20260904141003 78 6 1.7 5.2 0.00 1.11 0.10 88 1015.2
20260904140002 78 15 0.9 3.5 0.00 1.11 0.10 94 1015.2
20260904135024 77 74 0.0 3.5 0.00 1.11 0.10 96 1015.2
20260904134044 76 61 0.9 3.5 0.00 1.11 0.10 97 1015.1
20260904133003 75 9 0.0 0.9 0.00 1.11 0.10 98 1015.1
20260904132003 75 96 0.9 2.6 0.00 1.11 0.10 98 1015.1
20260904131003 74 131 0.0 1.7 0.00 1.11 0.10 98 1015.2
20260904130024 74 131 0.0 0.9 0.00 1.11 0.10 98 1015.1
20260904125002 74 131 0.0 0.9 0.00 1.11 0.10 98 1015.6
20260904124002 73 0 0.0 0.0 0.00 1.11 0.10 98 1015.5
20260904123024 72 0 0.0 0.0 0.00 1.11 0.10 98 1015.2
20260904122002 72 131 0.0 0.9 0.00 1.11 0.10 98 1015.1
20260904121003 71 131 0.0 0.9 0.00 1.11 0.10 98 1015.2
20260904120003 71 0 0.0 0.0 0.00 1.11 0.10 98 1015.0
20260904115024 71 131 0.0 0.9 0.00 1.11 0.10 98 1015.0
20260904114003 71 0 0.0 0.0 0.00 1.11 0.10 97 1015.2
20260904113024 71 0 0.0 0.0 0.00 1.11 0.10 97 1015.3
20260904112003 71 0 0.0 0.0 0.00 1.11 0.10 97 1015.1
20260904111024 71 131 0.0 0.9 0.00 1.11 0.10 98 1015.2
20260904110045 71 131 0.0 0.9 0.00 1.11 0.10 98 1014.9
20260904105003 70 131 0.0 0.9 0.00 1.11 0.10 97 1014.8
20260904104003 71 131 0.0 0.9 0.00 1.11 0.10 97 1014.8
20260904103003 70 131 0.0 0.9 0.00 1.11 0.10 97 1014.4
20260904102024 70 0 0.0 0.0 0.00 1.11 0.10 97 1014.3
20260904101024 70 0 0.0 0.0 0.00 1.11 0.10 97 1014.3
20260904100003 70 0 0.0 0.0 0.00 1.11 0.10 97 1014.0
20260904095003 70 0 0.0 0.0 0.00 1.11 0.10 97 1013.9
20260904094043 70 131 0.0 0.9 0.00 1.11 0.10 97 1013.8
20260904093104 70 0 0.0 0.0 0.00 1.11 0.10 97 1013.7
20260904092000 70 0 0.0 0.0 0.00 1.11 0.10 97 1013.7
20260904091021 70 0 0.0 0.0 0.00 1.11 0.10 97 1013.9
20260904090001 70 0 0.0 0.0 0.00 1.11 0.10 97 1014.0
20260904085000 70 0 0.0 0.0 0.00 1.11 0.10 97 1013.9
20260904084021 70 0 0.0 0.0 0.00 1.11 0.10 97 1014.0
20260904083000 70 131 0.0 0.9 0.00 1.11 0.10 97 1014.0
20260904082001 70 0 0.0 0.0 0.00 1.11 0.10 97 1014.1
20260904081001 70 0 0.0 0.0 0.00 1.11 0.10 97 1014.3
20260904080022 70 0 0.0 0.0 0.00 1.11 0.10 97 1014.1
20260904075001 70 131 0.0 0.9 0.00 1.11 0.10 97 1014.0
20260904074021 70 131 0.0 0.9 0.00 1.11 0.10 97 1013.9
20260904073000 70 131 0.0 0.9 0.00 1.11 0.10 97 1013.9
20260904072022 70 0 0.0 0.0 0.00 1.11 0.10 97 1013.8
20260904071022 71 131 0.0 0.9 0.00 1.11 0.10 97 1014.1
20260904070022 71 131 0.0 1.7 0.00 1.11 0.10 97 1014.2
20260904065001 71 131 0.0 1.7 0.00 1.11 0.10 97 1014.3
20260904064022 71 131 0.0 1.7 0.00 1.11 0.10 96 1014.4
20260904063001 71 130 0.0 0.9 0.00 1.11 0.10 96 1014.0
20260904062043 71 130 0.0 0.9 0.01 1.11 0.10 96 1013.7
20260904061043 71 130 0.0 1.7 0.01 1.11 0.10 96 1013.2
20260904060043 71 0 0.0 0.0 0.02 1.11 0.10 96 1012.8
20260904055001 71 0 0.0 0.0 0.03 1.11 0.10 96 1012.6
20260904054001 71 130 0.0 0.9 0.03 1.11 0.10 96 1012.8
20260904053001 71 130 0.0 0.9 0.03 1.11 0.10 96 1013.8
20260904052022 71 142 0.9 2.6 0.02 1.10 0.09 96 1014.0
20260904051001 71 152 0.0 0.9 0.02 1.10 0.09 95 1015.1
20260904050001 71 152 0.0 0.9 0.08 1.09 0.08 95 1015.4
20260904045022 71 152 0.0 1.7 0.31 1.08 0.07 95 1015.7
20260904044001 71 152 0.0 0.9 0.43 1.08 0.07 95 1015.8
20260904043043 71 152 0.0 1.7 0.68 1.08 0.07 95 1016.3
20260904042001 71 155 0.0 2.6 1.02 1.08 0.07 94 1016.6
20260904041001 71 344 0.9 8.7 1.04 1.08 0.07 94 1017.1
20260904040022 71 360 3.5 13.0 1.01 1.01 0.01 93 1017.1
20260904035104 72 355 5.2 14.8 0.78 0.78 0.78 91 1016.8
20260904034043 74 6 6.1 17.4 0.65 0.65 0.65 90 1016.1
20260904033001 76 9 7.0 17.4 0.40 0.40 0.40 85 1015.7
20260904032022 80 147 1.7 10.4 0.06 0.06 0.06 86 1015.3
20260904031043 81 159 0.9 4.3 0.04 0.04 0.04 90 1013.7
20260904030043 81 0 0.0 0.0 0.00 0.00 0.00 89 1014.1
20260904025044 81 0 0.0 0.0 0.00 0.00 0.00 88 1014.0
20260904024022 82 0 0.0 0.0 0.00 0.00 0.00 88 1014.1
20260904023001 82 0 0.0 0.0 0.00 0.00 0.00 87 1014.6
20260904022022 82 0 0.0 0.0 0.00 0.00 0.00 86 1014.4
20260904021001 82 0 0.0 0.0 0.00 0.00 0.00 85 1014.4
20260904020001 82 0 0.0 0.0 0.00 0.00 0.00 85 1014.5
20260904015022 82 0 0.0 0.0 0.00 0.00 0.00 85 1014.4
20260904014104 82 0 0.0 0.0 0.00 0.00 0.00 84 1014.5
20260904013001 83 0 0.0 0.0 0.00 0.00 0.00 84 1014.4
20260904012001 83 0 0.0 0.0 0.00 0.00 0.00 84 1014.4
20260904011001 83 194 0.0 0.9 0.00 0.00 0.00 83 1014.2
20260904010001 84 194 0.0 0.9 0.00 0.00 0.00 83 1014.5
20260904005001 84 0 0.0 0.0 0.00 0.00 0.00 82 1014.5
20260904004043 84 194 0.0 0.9 0.00 0.00 0.00 82 1014.7
20260904003002 85 0 0.0 0.0 0.00 0.00 0.00 81 1015.0
20260904002022 85 0 0.0 0.0 0.00 0.00 0.00 80 1015.2
20260904001022 85 194 0.0 0.9 0.00 0.00 0.00 79 1014.9
20260904000022 86 0 0.0 0.0 0.00 0.00 0.00 78 1014.9
20260903235002 86 0 0.0 0.0 0.00 0.00 0.00 77 1014.9
20260903234002 86 194 0.0 1.7 0.00 0.00 0.00 77 1014.6
20260903233023 87 176 0.0 2.6 0.00 0.00 0.00 76 1014.3
20260903232044 87 123 0.0 1.7 0.00 0.00 0.00 76 1014.4
20260903231023 88 126 0.0 2.6 0.00 0.00 0.00 75 1014.4
20260903230002 88 173 0.0 0.9 0.00 0.00 0.00 74 1014.2
20260903225001 88 156 0.0 1.7 0.00 0.00 0.00 73 1014.3
20260903224002 89 165 0.0 1.7 0.00 0.00 0.00 73 1014.2
20260903223002 89 174 0.9 3.5 0.00 0.00 0.00 73 1014.0
20260903222044 89 149 0.9 4.3 0.00 0.00 0.00 72 1014.0
20260903221023 90 152 0.9 4.3 0.00 0.00 0.00 72 1014.0
20260903220002 90 185 0.9 5.2 0.00 0.00 0.00 71 1014.1
20260903215023 90 172 0.9 4.3 0.00 0.00 0.00 71 1014.2
20260903214002 90 153 1.7 4.3 0.00 0.00 0.00 70 1014.2
20260903213044 91 162 1.7 5.2 0.00 0.00 0.00 69 1014.1
20260903212002 91 153 1.7 5.2 0.00 0.00 0.00 69 1014.1
20260903211023 91 154 0.9 3.5 0.00 0.00 0.00 68 1014.1
20260903210023 91 169 0.9 4.3 0.00 0.00 0.00 65 1014.2
20260903205002 92 162 0.9 6.1 0.00 0.00 0.00 66 1014.1
20260903204002 92 140 0.9 4.3 0.00 0.00 0.00 64 1014.2
20260903203002 92 146 1.7 7.0 0.00 0.00 0.00 64 1014.3
20260903202002 92 155 0.9 7.0 0.00 0.00 0.00 65 1014.4
20260903201023 92 142 0.9 5.2 0.00 0.00 0.00 66 1014.5
20260903200023 93 137 1.7 6.1 0.00 0.00 0.00 65 1014.7
20260903195023 93 155 1.7 7.0 0.00 0.00 0.00 65 1014.8
20260903194023 93 135 1.7 6.1 0.00 0.00 0.00 64 1015.1
20260903193105 93 149 0.9 3.5 0.00 0.00 0.00 66 1015.1
20260903192002 92 161 1.7 5.2 0.00 0.00 0.00 65 1015.3
20260903191002 92 170 1.7 5.2 0.00 0.00 0.00 64 1015.4
20260903190002 92 156 1.7 6.1 0.00 0.00 0.00 67 1015.6
20260903185002 91 157 0.9 3.5 0.00 0.00 0.00 68 1015.9
20260903184002 90 179 0.9 2.6 0.00 0.00 0.00 71 1016.1
20260903183044 90 188 0.9 2.6 0.00 0.00 0.00 69 1016.0
20260903182023 89 157 0.9 3.5 0.00 0.00 0.00 70 1015.8
20260903181002 88 158 0.9 3.5 0.00 0.00 0.00 73 1016.1
20260903180002 87 140 0.0 2.6 0.00 0.00 0.00 72 1016.6
20260903175002 87 159 0.9 5.2 0.00 0.00 0.00 74 1016.5
20260903174002 87 171 0.0 3.5 0.00 0.00 0.00 75 1016.7
20260903173002 87 173 0.0 1.7 0.00 0.00 0.00 73 1016.6
20260903172023 87 199 0.9 2.6 0.00 0.00 0.00 71 1017.1
20260903171023 87 314 0.0 3.5 0.00 0.00 0.00 73 1017.4
20260903170044 87 163 0.9 4.3 0.00 0.00 0.00 74 1017.5
20260903165002 86 360 0.9 3.5 0.00 0.00 0.00 79 1017.6
20260903164002 85 325 0.9 3.5 0.00 0.00 0.00 77 1018.0
20260903163044 84 342 0.9 3.5 0.00 0.00 0.00 79 1017.9